Location: Crescent
(42.8242°N, 73.7329°W)
Time: 13:16:33
(UTC+00:00)

Tiros 1 - Pass Details

Date: 16 February 2026
Orbit: 618 x 650 km, 48.4° (Epoch: 16 March)

Event Time Altitude Azimuth Distance (km) Brightness Sun altitude
Rises 15:52:11 0° 268° (W) 2,900 10.3 32.3°
Reaches altitude 10° 15:54:35 10° 274° (W) 1,990 9.5 32.4°
Maximum altitude 15:59:00 47° 348° (NNW) 828 7.7 32.7°
Drops below altitude 10° 16:03:24 10° 63° (ENE) 1,982 9.7 33.0°
Sets 16:05:47 0° 69° (ENE) 2,887 10.5 33.1°
